Lake Clear, NY

3:41 AM EDT on August 30, 2016 (GMT -0400)
Adirondack Regional

Weather History for KSLK - February, 2013

Change the Weather History Date:

Friday, February 22, 2013

  Actual Average Record
Temperature  
Mean Temperature 13 °F 16 °F  
Max Temperature 30 °F 30 °F 56 °F (1981)
Min Temperature -4 °F 3 °F -22 °F (2011)
Degree Days  
Heating Degree Days 52 49  
Month to date heating degree days 1137 1117  
Since 1 July heating degree days 6046 6419  
Cooling Degree Days 0 0  
Month to date cooling degree days 0  
Year to date cooling degree days 0  
Moisture  
Dew Point 12 °F    
Average Humidity 84    
Maximum Humidity 100    
Minimum Humidity 68    
Precipitation  
Precipitation T in 0.05 in 1.11 in (1976)
Month to date precipitation 0.55 1.30  
Year to date precipitation 1.78 3.43  
Sea Level Pressure  
Sea Level Pressure 30.30 in    
Wind  
Wind Speed 4 mph (ENE)    
Max Wind Speed 13 mph    
Max Gust Speed 16 mph    
Visibility 10 miles    
Events Snow    
T = Trace of Precipitation, MM = Missing Value Source: NWS Daily Summary

Daily Weather History Graph

Daily Weather History Graph

Search for Another Location

Airport or City:

Trip Planner

Search our weather history database for the weather conditions in past years. The results will help you decide how hot, cold, wet, or windy it might be!

Date:

Astronomy

Feb. 22, 2013 Rise Set
Actual Time 6:45 AM EST 5:35 PM EST
Civil Twilight 6:15 AM EST 6:05 PM EST
Nautical Twilight 5:42 AM EST 6:39 PM EST
Astronomical Twilight 5:08 AM EST 7:12 PM EST
Moon 2:40 PM EST (2/22) 4:33 AM EST (2/22)
Length of Visible Light 11h 49m
Length of Day
10h 50m
Waxing Gibbous, 90% of the Moon is Illuminated
Feb 22
Waxing Gibbous
Feb 25
Full
Mar 4
Last Quarter
Mar 11
New
Mar 19
First Quarter

Hourly Weather History & Observations

Time (EST) Temp. Windchill Dew Point Humidity Pressure Visibility Wind Dir Wind Speed Gust Speed Precip Events Conditions
12:51 AM 12.9 °F - 10.9 °F 92% 30.41 in 8.0 mi Calm Calm - N/A   Overcast
1:51 AM 14.0 °F - 10.9 °F 88% 30.37 in 10.0 mi Calm Calm - N/A   Overcast
2:51 AM 12.9 °F - 10.0 °F 88% 30.37 in 10.0 mi Calm Calm - N/A   Overcast
3:19 AM 12.2 °F - 10.4 °F 92% 30.24 in 10.0 mi Calm Calm - N/A   Overcast
3:51 AM 9.0 °F - 6.1 °F 88% 30.34 in 10.0 mi Calm Calm - N/A   Partly Cloudy
4:51 AM 3.0 °F - 1.0 °F 91% 30.36 in 10.0 mi Calm Calm - N/A   Clear
5:51 AM 1.0 °F - -2.0 °F 87% 30.41 in 10.0 mi Calm Calm - N/A   Clear
6:51 AM -2.0 °F - -5.1 °F 87% 30.43 in 10.0 mi Calm Calm - N/A   Clear
7:14 AM -2.2 °F - -5.8 °F 85% 30.31 in 10.0 mi Calm Calm - N/A   Scattered Clouds
7:22 AM -2.2 °F - -5.8 °F 85% 30.31 in 10.0 mi Calm Calm - N/A   Mostly Cloudy
7:48 AM -0.4 °F - -4.0 °F 85% 30.31 in 10.0 mi Calm Calm - N/A   Overcast
7:51 AM -0.0 °F - -2.9 °F 88% 30.43 in 10.0 mi Calm Calm - N/A   Overcast
8:51 AM 9.0 °F - 8.1 °F 96% 30.42 in 10.0 mi Calm Calm - N/A   Overcast
9:04 AM 10.4 °F - 10.4 °F 100% 30.31 in 10.0 mi Calm Calm - N/A   Overcast
9:51 AM 19.0 °F - 17.1 °F 92% 30.39 in 4.0 mi Calm Calm - N/A   Mostly Cloudy
9:58 AM 21.2 °F - 17.6 °F 86% 30.29 in 7.0 mi Calm Calm - N/A   Scattered Clouds
10:51 AM 26.1 °F 16.2 °F 19.9 °F 78% 30.36 in 10.0 mi East 10.4 mph - N/A   Clear
11:19 AM 26.6 °F 18.2 °F 19.4 °F 74% 30.27 in 10.0 mi ENE 8.1 mph - N/A   Mostly Cloudy
11:51 AM 28.0 °F 19.3 °F 19.0 °F 69% 30.35 in 10.0 mi ENE 9.2 mph - N/A   Overcast
12:51 PM 28.0 °F 20.0 °F 19.0 °F 69% 30.31 in 10.0 mi ENE 8.1 mph - N/A   Mostly Cloudy
1:47 PM 28.4 °F 19.7 °F 19.4 °F 69% 30.20 in 10.0 mi ENE 9.2 mph - N/A   Partly Cloudy
1:51 PM 28.9 °F 21.1 °F 19.0 °F 67% 30.28 in 10.0 mi ENE 8.1 mph - N/A   Partly Cloudy
2:51 PM 28.9 °F 21.9 °F 19.0 °F 67% 30.27 in 10.0 mi ENE 6.9 mph - N/A   Clear
3:51 PM 28.9 °F 21.1 °F 19.9 °F 69% 30.25 in 10.0 mi ENE 8.1 mph - N/A   Clear
4:51 PM 28.0 °F 20.8 °F 19.0 °F 69% 30.24 in 10.0 mi ENE 6.9 mph - N/A   Partly Cloudy
5:51 PM 26.1 °F 17.6 °F 18.0 °F 71% 30.24 in 10.0 mi ENE 8.1 mph - N/A   Clear
6:51 PM 26.1 °F 20.5 °F 18.0 °F 71% 30.25 in 10.0 mi East 4.6 mph - N/A   Partly Cloudy
7:51 PM 26.1 °F 21.9 °F 18.0 °F 71% 30.22 in 10.0 mi ENE 3.5 mph - N/A   Overcast
8:51 PM 25.0 °F 20.7 °F 18.0 °F 75% 30.20 in 10.0 mi ENE 3.5 mph - N/A   Overcast
9:51 PM 24.1 °F - 17.1 °F 75% 30.18 in 10.0 mi Calm Calm - N/A   Overcast
10:51 PM 30.0 °F 25.2 °F 19.0 °F 64% 30.16 in 9.0 mi SSE 4.6 mph - 0.00 in Snow Light Snow
11:51 PM 30.0 °F 21.1 °F 19.0 °F 64% 30.13 in 10.0 mi South 10.4 mph - 0.00 in   Overcast